FW4606 Weather Reports


time (UTC)temp
F
wind
direction
speed
knots
gust
knots
rain 1hr
in
rain 24hr
in
rain mn
in
humidity
%
barometer
mb
20260509084442 53 18 0.0 1.7 0.00 0.00 0.00 62 1002.7
20260509083941 53 338 0.0 1.7 0.00 0.00 0.00 61 1002.8
20260509083712 53 50 0.0 1.7 0.00 0.00 0.00 60 1002.7
20260509082940 53 16 0.9 6.1 0.00 0.00 0.00 59 1002.7
20260509082440 53 25 0.9 6.1 0.00 0.00 0.00 59 1002.7
20260509081940 52 6 0.9 5.2 0.00 0.00 0.00 59 1002.7
20260509081442 52 39 0.9 5.2 0.00 0.00 0.00 60 1002.6
20260509080942 51 30 0.0 2.6 0.00 0.00 0.00 60 1002.6
20260509080442 50 321 0.0 3.5 0.00 0.00 0.00 60 1002.5
20260509075940 50 118 0.0 3.5 0.00 0.00 0.00 61 1002.5
20260509075440 49 187 0.0 0.9 0.00 0.00 0.00 61 1002.5
20260509074950 49 135 0.0 1.7 0.00 0.00 0.00 60 1002.4
20260509074941 49 136 0.0 0.9 0.00 0.00 0.00 62 1002.5
20260509073942 49 205 0.0 1.7 0.00 0.00 0.00 59 1002.2
20260509073440 49 126 0.0 1.7 0.00 0.00 0.00 61 1002.2
20260509073214 49 147 0.0 0.0 0.00 0.00 0.00 66 1002.0
20260509072447 49 147 0.0 0.0 0.00 0.00 0.00 61 1002.1
20260509072443 49 146 0.0 0.0 0.00 0.00 0.00 65 1002.0
20260509071444 49 147 0.0 0.0 0.00 0.00 0.00 61 1002.1
20260509070940 48 147 0.0 0.0 0.00 0.00 0.00 61 1002.0
20260509070442 48 146 0.0 0.0 0.00 0.00 0.00 63 1002.1
20260509065941 49 146 0.0 0.0 0.00 0.00 0.00 61 1002.1
20260509065441 49 147 0.0 0.0 0.00 0.00 0.00 59 1002.1
20260509064940 49 146 0.0 0.0 0.00 0.00 0.00 56 1002.2
20260509064713 49 146 0.0 0.0 0.00 0.00 0.00 55 1002.1
20260509063942 48 147 0.0 0.0 0.00 0.00 0.00 55 1002.2
20260509063441 48 146 0.0 0.0 0.00 0.00 0.00 57 1002.1
20260509062934 48 146 0.0 0.0 0.00 0.00 0.00 58 1002.1
20260509062428 48 147 0.0 0.0 0.00 0.00 0.00 58 1001.8
20260509061927 48 146 0.0 0.9 0.00 0.00 0.00 59 1002.1
20260509061429 48 146 0.0 0.9 0.00 0.00 0.00 59 1002.1
20260509060926 50 103 0.0 0.0 0.00 0.00 0.00 55 1002.1
20260509060428 50 103 0.0 0.0 0.00 0.00 0.00 50 1002.0
20260509055926 50 103 0.0 0.0 0.00 0.00 0.00 50 1001.9
20260509055429 50 103 0.0 0.0 0.00 0.00 0.00 49 1001.9
20260509055155 50 103 0.0 0.0 0.00 0.00 0.00 50 1002.0
20260509054420 50 103 0.0 0.0 0.00 0.00 0.00 50 1002.1
20260509053918 49 103 0.0 0.0 0.00 0.00 0.00 51 1002.2
20260509053415 49 103 0.0 0.0 0.00 0.00 0.00 52 1002.3
20260509052913 48 103 0.0 0.0 0.00 0.00 0.00 53 1002.4
20260509052410 49 103 0.0 0.0 0.00 0.00 0.00 53 1002.4
20260509052141 49 103 0.0 0.0 0.00 0.00 0.00 52 1002.5
20260509051409 49 103 0.0 0.0 0.00 0.00 0.00 51 1002.6
20260509050910 49 103 0.0 0.0 0.00 0.00 0.00 50 1002.5
20260509050406 49 103 0.0 0.0 0.00 0.00 0.00 50 1002.5
20260509045909 49 103 0.0 0.9 0.00 0.00 0.00 51 1002.4
20260509045408 48 103 0.0 0.0 0.00 0.00 0.00 51 1002.8
20260509045403 47 103 0.0 0.9 0.00 0.00 0.00 51 1002.6
20260509044350 48 103 0.0 0.0 0.00 0.00 0.00 51 1002.7
20260509043845 49 103 0.0 0.0 0.00 0.00 0.00 50 1002.8
20260509043339 49 103 0.0 0.0 0.00 0.00 0.00 49 1002.8
20260509043103 50 103 0.0 0.0 0.00 0.00 0.00 49 1002.9
20260509042326 50 103 0.0 0.0 0.00 0.00 0.00 49 1002.9
20260509041821 50 103 0.0 0.0 0.00 0.00 0.00 49 1002.9
20260509041314 50 103 0.0 0.0 0.00 0.00 0.00 49 1002.9
20260509040809 51 103 0.0 0.0 0.00 0.00 0.00 47 1002.9
20260509040534 51 129 0.0 0.9 0.00 0.00 0.00 47 1003.1
20260509035756 51 129 0.0 0.9 0.00 0.00 0.00 46 1003.1
20260509035522 52 129 0.0 1.7 0.00 0.00 0.00 47 1003.1
20260509034745 52 113 0.0 1.7 0.00 0.00 0.00 46 1003.1
20260509034239 52 194 0.0 0.0 0.00 0.00 0.00 46 1003.1
20260509033733 53 194 0.0 0.9 0.00 0.00 0.00 45 1003.0
20260509033227 53 194 0.0 0.9 0.00 0.00 0.00 44 1003.0
20260509032721 54 110 0.0 0.9 0.00 0.00 0.00 44 1002.9
20260509032446 54 201 0.0 0.9 0.00 0.00 0.00 44 1002.9
20260509031708 55 149 0.0 1.7 0.00 0.00 0.00 42 1003.0
20260509031202 55 225 0.0 1.7 0.00 0.00 0.00 41 1002.8
20260509030656 56 197 0.0 4.3 0.00 0.00 0.00 40 1002.9
20260509030151 56 103 0.0 4.3 0.00 0.00 0.00 41 1002.8
20260509025916 56 165 0.0 2.6 0.00 0.00 0.00 40 1002.7
20260509025139 57 257 0.0 2.6 0.00 0.00 0.00 40 1002.7
20260509024633 57 100 0.0 3.5 0.00 0.00 0.00 40 1002.7
20260509024127 58 329 0.0 3.5 0.00 0.00 0.00 40 1002.7
20260509023620 58 180 0.0 2.6 0.00 0.00 0.00 39 1002.7
20260509023345 58 133 0.0 2.6 0.00 0.00 0.00 39 1002.6
20260509022608 59 100 0.0 2.6 0.00 0.00 0.00 38 1002.5
20260509022102 59 130 0.9 4.3 0.00 0.00 0.00 39 1002.4
20260509021556 60 115 0.9 5.2 0.00 0.00 0.00 37 1002.3
20260509021050 60 11 0.9 5.2 0.00 0.00 0.00 36 1002.2
20260509020542 61 74 0.9 7.0 0.00 0.00 0.00 37 1002.1
20260509020306 61 12 1.7 10.4 0.00 0.00 0.00 37 1002.0
20260509015534 61 172 0.9 10.4 0.00 0.00 0.00 37 1001.9
20260509015020 60 72 0.0 3.5 0.00 0.00 0.00 39 1001.8
20260509014514 61 120 0.0 5.2 0.00 0.00 0.00 39 1001.5
20260509014008 62 91 0.9 5.2 0.00 0.00 0.00 38 1001.5
20260509013502 62 139 0.9 4.3 0.00 0.00 0.00 37 1001.5
20260509012955 62 307 0.9 4.3 0.00 0.00 0.00 36 1001.3
20260509012450 61 131 0.0 4.3 0.00 0.00 0.00 35 1001.2
20260509011944 62 197 0.0 2.6 0.00 0.00 0.00 36 1001.2
20260509011708 62 194 0.0 1.7 0.00 0.00 0.00 35 1001.1
20260509011205 63 168 0.0 1.7 0.00 0.00 0.00 35 1001.0
20260509010656 64 191 0.0 1.7 0.00 0.00 0.00 34 1001.0
20260509005921 64 276 0.0 2.6 0.00 0.00 0.00 35 1000.9
20260509005417 65 101 0.9 3.5 0.00 0.00 0.00 32 1001.0
20260509004908 66 137 0.9 3.5 0.00 0.00 0.00 32 1000.9
20260509004634 66 186 0.9 5.2 0.00 0.00 0.00 31 1000.9
20260509003855 66 108 1.7 5.2 0.00 0.00 0.00 30 1000.9
20260509003350 67 156 0.9 3.5 0.00 0.00 0.00 31 1000.8
20260509002844 67 238 0.9 5.2 0.00 0.00 0.00 29 1000.9
20260509002338 68 165 0.9 5.2 0.00 0.00 0.00 30 1000.8
20260509001832 69 134 0.9 4.3 0.00 0.00 0.00 28 1000.9
20260509001326 69 124 1.7 4.3 0.00 0.00 0.00 28 1000.8
20260509000820 70 153 2.6 6.1 0.00 0.00 0.00 27 1000.8
20260509000314 70 179 2.6 6.1 0.00 0.00 0.00 27 1000.8
20260508235808 70 152 2.6 6.1 0.00 0.00 0.00 28 1000.7
20260508235306 69 190 2.6 6.1 0.00 0.00 0.00 29 1000.8
20260508234756 69 239 2.6 7.8 0.00 0.00 0.00 28 1000.8
20260508234520 70 156 1.7 9.6 0.00 0.00 0.00 28 1000.9
20260508233743 70 206 0.9 6.1 0.00 0.00 0.00 29 1000.8
20260508233237 70 135 0.9 2.6 0.00 0.00 0.00 29 1000.9
20260508232732 70 164 0.9 1.7 0.00 0.00 0.00 31 1001.0
20260508232229 70 233 0.9 6.1 0.00 0.00 0.00 31 1001.0
20260508231728 70 193 1.7 6.1 0.00 0.00 0.00 32 1001.1
20260508231227 70 166 2.6 6.1 0.00 0.00 0.00 30 1001.0
20260508230729 70 118 2.6 6.1 0.00 0.00 0.00 27 1001.1
20260508230234 72 162 2.6 7.0 0.00 0.00 0.00 27 1001.2
20260508230226 71 169 1.7 5.2 0.00 0.00 0.00 27 1001.1
20260508225727 71 167 2.6 7.0 0.00 0.00 0.00 27 1001.1
20260508224726 73 150 1.7 5.2 0.00 0.00 0.00 28 1001.0
20260508224225 72 211 1.7 5.2 0.00 0.00 0.00 28 1001.1
20260508223959 72 119 1.7 6.1 0.00 0.00 0.00 29 1001.1
20260508223224 72 149 1.7 6.1 0.00 0.00 0.00 30 1001.3
20260508222723 73 211 1.7 7.0 0.00 0.00 0.00 28 1001.3
20260508222224 71 158 1.7 7.0 0.00 0.00 0.00 28 1001.3
20260508221954 71 138 0.9 6.1 0.00 0.00 0.00 26 1001.3
20260508221227 71 174 1.7 6.1 0.00 0.00 0.00 29 1001.4
20260508220723 71 142 3.5 7.0 0.00 0.00 0.00 29 1001.4
20260508220222 72 180 2.6 7.0 0.00 0.00 0.00 25 1001.4
20260508215724 72 136 1.7 6.1 0.00 0.00 0.00 29 1001.5
20260508215218 72 112 2.6 7.0 0.00 0.00 0.00 28 1001.5
20260508214712 72 169 3.5 6.1 0.00 0.00 0.00 26 1001.6
20260508214205 72 195 3.5 6.1 0.00 0.00 0.00 29 1001.8
20260508213700 73 146 3.5 7.8 0.00 0.00 0.00 26 1001.8
20260508213153 73 164 4.3 8.7 0.00 0.00 0.00 28 1001.9
20260508212648 73 137 5.2 9.6 0.00 0.00 0.00 25 1002.0
20260508212142 73 102 4.3 9.6 0.00 0.00 0.00 26 1002.0
20260508211908 74 154 4.3 9.6 0.00 0.00 0.00 25 1002.0
20260508211130 73 252 5.2 9.6 0.00 0.00 0.00 27 1002.0
20260508210854 72 198 4.3 9.6 0.00 0.00 0.00 28 1002.0
20260508210118 73 174 4.3 9.6 0.00 0.00 0.00 26 1002.2
20260508205618 73 174 5.2 10.4 0.00 0.00 0.00 28 1002.2
20260508205118 73 200 5.2 10.4 0.00 0.00 0.00 25 1002.3
20260508204618 72 165 4.3 7.8 0.00 0.00 0.00 26 1002.4
20260508204118 71 141 3.5 8.7 0.00 0.00 0.00 27 1002.6
20260508203618 70 208 2.6 8.7 0.00 0.00 0.00 28 1002.6
20260508203118 70 208 3.5 7.8 0.00 0.00 0.00 28 1002.7
20260508202618 72 297 3.5 7.8 0.00 0.00 0.00 28 1002.8
20260508202119 72 173 3.5 10.4 0.00 0.00 0.00 29 1002.8
20260508201616 71 157 5.2 10.4 0.00 0.00 0.00 29 1003.0
20260508201124 73 217 3.5 12.2 0.00 0.00 0.00 25 1003.1
20260508201118 72 177 5.2 12.2 0.00 0.00 0.00 26 1003.1
20260508200118 73 23 2.6 8.7 0.00 0.00 0.00 28 1003.2
20260508195617 73 217 3.5 8.7 0.00 0.00 0.00 26 1003.2
20260508195350 72 325 5.2 9.6 0.00 0.00 0.00 27 1003.2
20260508194617 72 142 4.3 9.6 0.00 0.00 0.00 28 1003.3
20260508194118 71 170 3.5 9.6 0.00 0.00 0.00 30 1003.4
20260508193612 71 139 2.6 6.1 0.00 0.00 0.00 26 1003.5
20260508193106 71 198 2.6 6.1 0.00 0.00 0.00 27 1003.6
20260508192604 71 293 3.5 7.8 0.00 0.00 0.00 27 1003.6
20260508192050 71 198 3.5 7.8 0.00 0.00 0.00 30 1003.8
20260508191543 70 167 3.5 7.8 0.00 0.00 0.00 31 1003.8
20260508191038 69 219 2.6 7.0 0.00 0.00 0.00 29 1003.9
20260508190532 69 141 1.7 7.0 0.00 0.00 0.00 30 1004.0
20260508190033 70 214 3.5 7.8 0.00 0.00 0.00 28 1004.0
20260508185805 70 153 3.5 8.7 0.00 0.00 0.00 27 1004.1
20260508185032 71 139 1.7 8.7 0.00 0.00 0.00 28 1004.1
20260508184531 71 112 0.9 3.5 0.00 0.00 0.00 28 1004.3
20260508184032 70 314 1.7 4.3 0.00 0.00 0.00 27 1004.3
20260508183528 70 157 2.6 7.0 0.00 0.00 0.00 33 1004.4
20260508183032 70 266 1.7 7.0 0.00 0.00 0.00 29 1004.4
20260508182530 71 179 0.9 6.1 0.00 0.00 0.00 28 1004.5
20260508182027 69 152 0.9 4.3 0.00 0.00 0.00 29 1004.5
20260508181527 69 105 1.7 6.1 0.00 0.00 0.00 29 1004.6
20260508181029 71 91 1.7 7.8 0.00 0.00 0.00 29 1004.6
20260508180526 71 201 2.6 7.8 0.00 0.00 0.00 28 1004.7
20260508180257 70 148 2.6 7.0 0.00 0.00 0.00 29 1004.7
20260508175526 70 141 3.5 7.8 0.00 0.00 0.00 29 1004.8
20260508175026 69 204 3.5 7.8 0.00 0.00 0.00 29 1005.0
20260508174526 69 224 1.7 6.1 0.00 0.00 0.00 29 1005.0
20260508174019 69 160 1.7 7.0 0.00 0.00 0.00 30 1005.1
20260508173513 68 93 3.5 8.7 0.00 0.00 0.00 30 1005.2
20260508173008 68 152 2.6 8.7 0.00 0.00 0.00 30 1005.3
20260508172502 68 94 2.6 8.7 0.00 0.00 0.00 32 1005.4
20260508171956 68 156 3.5 7.8 0.00 0.00 0.00 29 1005.7
20260508171450 68 139 2.6 7.8 0.00 0.00 0.00 31 1005.7
20260508170944 67 158 3.5 7.0 0.00 0.00 0.00 34 1005.7
20260508170438 67 165 2.6 6.1 0.00 0.00 0.00 31 1005.8
20260508165938 67 191 2.6 6.1 0.00 0.00 0.00 32 1005.9
20260508165436 66 167 1.7 6.1 0.00 0.00 0.00 33 1005.9
20260508164938 65 231 0.9 2.6 0.00 0.00 0.00 33 1006.0
20260508164437 64 204 1.7 3.5 0.00 0.00 0.00 34 1006.1
20260508163937 64 215 1.7 4.3 0.00 0.00 0.00 37 1006.2
20260508163436 63 234 2.6 5.2 0.00 0.00 0.00 37 1006.3
20260508162938 64 212 2.6 5.2 0.00 0.00 0.00 36 1006.3
20260508162707 64 191 2.6 6.1 0.00 0.00 0.00 37 1006.3
20260508161934 63 156 2.6 6.1 0.00 0.00 0.00 37 1006.3
20260508161432 62 214 2.6 5.2 0.00 0.00 0.00 39 1006.3
20260508160934 62 212 2.6 7.0 0.00 0.00 0.00 41 1006.4
20260508160702 61 197 2.6 7.0 0.00 0.00 0.00 40 1006.4
20260508155930 60 141 2.6 6.1 0.00 0.00 0.00 39 1006.5
20260508155432 59 204 2.6 6.1 0.00 0.00 0.00 42 1006.5
20260508154931 58 190 1.7 6.1 0.00 0.00 0.00 42 1006.6
20260508154431 58 183 1.7 3.5 0.00 0.00 0.00 44 1006.7
20260508154200 58 224 1.7 4.3 0.00 0.00 0.00 44 1006.7
20260508153429 57 208 1.7 4.3 0.00 0.00 0.00 44 1006.8
20260508152930 57 205 1.7 4.3 0.00 0.00 0.00 44 1006.8
20260508152431 57 184 1.7 4.3 0.00 0.00 0.00 44 1006.9
20260508151931 57 233 1.7 4.3 0.00 0.00 0.00 45 1006.9
20260508151433 56 126 1.7 4.3 0.00 0.00 0.00 44 1006.9
20260508150929 56 176 1.7 4.3 0.00 0.00 0.00 48 1007.0
20260508150434 55 173 0.9 2.6 0.00 0.00 0.00 49 1007.2
20260508150427 55 151 0.9 3.5 0.00 0.00 0.00 46 1007.0
20260508145425 55 153 0.9 2.6 0.00 0.00 0.00 48 1007.1
20260508144926 55 207 0.9 2.6 0.00 0.00 0.00 47 1007.3
20260508144424 54 224 0.9 2.6 0.00 0.00 0.00 49 1007.4
20260508143925 54 189 0.9 3.5 0.00 0.00 0.00 48 1007.4
20260508143425 53 194 0.9 3.5 0.00 0.00 0.00 50 1007.4
20260508142924 53 211 0.0 3.5 0.00 0.00 0.00 49 1007.6
20260508142426 52 217 0.9 3.5 0.00 0.00 0.00 53 1007.5
20260508141926 52 211 0.9 3.5 0.00 0.00 0.00 53 1007.5
20260508141654 51 162 0.9 3.5 0.00 0.00 0.00 51 1007.6
20260508140923 51 221 0.0 2.6 0.00 0.00 0.00 52 1007.6
20260508140422 51 214 0.0 3.5 0.00 0.00 0.00 51 1007.7
20260508135923 50 159 0.0 3.5 0.00 0.00 0.00 50 1007.7
20260508135422 50 205 0.0 1.7 0.00 0.00 0.00 52 1007.7
20260508134923 49 194 0.0 1.7 0.00 0.00 0.00 55 1007.8
20260508134654 49 160 0.0 1.7 0.00 0.00 0.00 55 1007.9
20260508133924 48 232 0.0 1.7 0.00 0.00 0.00 57 1007.8
20260508133420 47 173 0.0 1.7 0.00 0.00 0.00 59 1007.9
20260508132920 47 197 0.0 1.7 0.00 0.00 0.00 63 1007.9
20260508132651 45 231 0.0 1.7 0.00 0.00 0.00 63 1008.0
20260508131920 44 162 0.0 0.0 0.00 0.00 0.00 69 1007.9
20260508131418 42 150 0.0 0.0 0.00 0.00 0.00 70 1008.0
20260508131149 41 176 0.0 0.0 0.00 0.00 0.00 72 1008.0
20260508130419 39 162 0.0 0.0 0.00 0.00 0.00 78 1008.0
20260508125919 37 163 0.0 0.0 0.00 0.00 0.00 88 1008.0
20260508125420 36 163 0.0 0.0 0.00 0.00 0.00 92 1008.1
20260508124916 35 163 0.0 0.0 0.00 0.00 0.00 92 1008.1
20260508124416 35 164 0.0 0.0 0.00 0.00 0.00 92 1008.1
20260508123914 34 163 0.0 0.0 0.00 0.00 0.00 92 1008.0
20260508123415 34 163 0.0 0.0 0.00 0.00 0.00 92 1008.0
20260508122915 33 163 0.0 0.0 0.00 0.00 0.00 93 1008.0
20260508122416 33 163 0.0 0.0 0.00 0.00 0.00 93 1008.0
20260508121916 32 163 0.0 0.0 0.00 0.00 0.00 93 1008.0
20260508121414 32 163 0.0 0.0 0.00 0.00 0.00 93 1008.0
20260508120915 31 163 0.0 0.0 0.00 0.00 0.00 92 1008.0
20260508120644 31 163 0.0 0.0 0.00 0.00 0.00 92 1008.0
20260508120141 31 163 0.0 0.0 0.00 0.00 0.00 92 1008.0
20260508115410 31 163 0.0 0.0 0.00 0.00 0.00 92 1008.0
20260508114911 31 163 0.0 0.0 0.00 0.00 0.00 92 1007.9
20260508114410 31 163 0.0 0.0 0.00 0.00 0.00 92 1007.9
20260508113912 31 163 0.0 0.0 0.00 0.00 0.00 92 1007.8
20260508113411 30 141 0.0 0.0 0.00 0.00 0.00 92 1007.8
20260508112912 31 141 0.0 0.0 0.00 0.00 0.00 92 1007.8
20260508112412 31 141 0.0 0.0 0.00 0.00 0.00 92 1007.7
20260508111908 30 141 0.0 0.0 0.00 0.00 0.00 93 1007.7
20260508111638 30 141 0.0 0.0 0.00 0.00 0.00 93 1007.7
20260508110908 30 166 0.0 0.0 0.00 0.00 0.00 92 1007.7
20260508110640 30 166 0.0 0.0 0.00 0.00 0.00 92 1007.8
20260508105908 30 166 0.0 0.0 0.00 0.00 0.00 92 1007.8
20260508105407 30 166 0.0 0.0 0.00 0.00 0.00 92 1007.8
20260508105143 30 166 0.0 0.0 0.00 0.00 0.00 91 1007.7
20260508104908 30 166 0.0 0.0 0.00 0.00 0.00 92 1007.7
20260508103907 30 166 0.0 0.0 0.00 0.00 0.00 91 1007.8
20260508103406 30 166 0.0 0.0 0.00 0.00 0.00 91 1007.8
20260508102907 30 166 0.0 0.0 0.00 0.00 0.00 91 1007.8
20260508102406 30 166 0.0 0.0 0.00 0.00 0.00 90 1007.8
20260508101908 30 166 0.0 0.0 0.00 0.00 0.00 90 1007.8
20260508101406 30 166 0.0 0.0 0.00 0.00 0.00 90 1007.9
20260508100906 30 150 0.0 0.0 0.00 0.00 0.00 90 1007.9
20260508100407 31 150 0.0 0.0 0.00 0.00 0.00 89 1007.9
20260508100140 31 150 0.0 0.0 0.00 0.00 0.00 88 1007.8
20260508095406 31 150 0.0 0.0 0.00 0.00 0.00 88 1007.8
20260508094907 32 150 0.0 0.0 0.00 0.00 0.00 89 1007.8
20260508094406 32 150 0.0 0.0 0.00 0.00 0.00 89 1007.8
20260508093907 32 150 0.0 0.0 0.00 0.00 0.00 88 1007.8
20260508093408 32 150 0.0 0.0 0.00 0.00 0.00 87 1007.8
20260508092907 32 150 0.0 0.0 0.00 0.00 0.00 87 1007.7
20260508092407 33 150 0.0 0.0 0.00 0.00 0.00 86 1007.7
20260508091909 33 150 0.0 0.0 0.00 0.00 0.00 87 1007.7
20260508091407 33 150 0.0 0.0 0.00 0.00 0.00 87 1007.7
20260508090905 33 150 0.0 0.0 0.00 0.00 0.00 87 1007.7
20260508090637 33 150 0.0 0.0 0.00 0.00 0.00 86 1007.8
20260508085906 33 150 0.0 0.0 0.00 0.00 0.00 84 1007.8
20260508085405 34 150 0.0 0.0 0.00 0.00 0.00 82 1007.8
20260508084903 34 150 0.0 0.0 0.00 0.00 0.00 82 1007.8